Список аэропортов
Фактическая погода:

21 января, 13:00
Температура: -1°C (-1.9*)
Ветер: перем. 1 м/с
Давление: *756 мм
разорв. обл.
180 м
разорв. обл.
1500 м
Время (МСК)Темп. СВетерВлажностьДавлениеОблачностьОсадки
09:00-2СВ, 2 м/с85%1012 гПаоблачно
10:00-1СВ, 2 м/с81%1011 гПаоблачно
11:000В, 2 м/с77%1011 гПаоблачно
12:00+2В, 5 м/с77%1009 гПаоблачносл. дождь
13:00+2ЮВ, 6 м/с74%1008 гПаоблачносл. дождь
14:00+3ЮВ, 6 м/с75%1007 гПаоблачносл. дождь
15:00+2ЮВ, 6 м/с79%1006 гПаоблачнодождь
16:00+3ЮВ, 5 м/с81%1005 гПаоблачнодождь
17:00+3ЮВ, 6 м/с81%1004 гПаоблачносл. дождь
18:00+2ЮВ, 5 м/с82%1004 гПаоблачносл. дождь
19:00+2ЮВ, 6 м/с84%1003 гПаоблачносл. дождь
20:00+2ЮВ, 5 м/с86%1003 гПаоблачносл. дождь
21:00+2ЮВ, 5 м/с87%1002 гПаоблачно
22:00+2ЮВ, 5 м/с87%1001 гПаоблачно
23:00+2ЮВ, 5 м/с89%1001 гПаоблачно
22 января
00:00+2ЮВ, 5 м/с91%1000 гПаоблачно
01:00+2ЮВ, 4 м/с93%1000 гПаоблачнодождь
02:00+2ЮВ, 2 м/с94%1000 гПаоблачнодождь
03:00+1С, 2 м/с97%1001 гПаоблачнодождь
04:00+1СЗ, 4 м/с96%1001 гПаоблачнодождь
05:00+1СЗ, 5 м/с91%1001 гПаоблачнодождь
06:00+1СЗ, 5 м/с88%1002 гПаоблачнодождь
07:00+1СЗ, 6 м/с86%1003 гПаоблачнодождь
08:00+1СЗ, 6 м/с84%1004 гПаоблачнодождь
09:00+1СЗ, 5 м/с82%1005 гПаоблачнодождь
10:00+1СЗ, 5 м/с80%1006 гПаоблачнодождь
11:00+1СЗ, 5 м/с78%1006 гПаоблачносл. дождь
12:00+1СЗ, 5 м/с77%1006 гПаоблачносл. дождь
13:00+1СЗ, 5 м/с77%1007 гПаоблачносл. дождь
14:00+1С, 5 м/с76%1007 гПаоблачносл. дождь
15:00+1С, 6 м/с77%1008 гПаоблачносл. дождь
16:00+1С, 5 м/с76%1008 гПаоблачносл. дождь
17:00+1С, 5 м/с76%1009 гПаоблачносл. дождь
18:00+1СЗ, 5 м/с78%1010 гПаоблачно
19:00+1СЗ, 4 м/с79%1011 гПаоблачно
20:000СЗ, 4 м/с80%1012 гПаоблачно
21:000СЗ, 3 м/с80%1013 гПаоблачно
22:000СЗ, 4 м/с80%1013 гПаоблачно
23:000З, 5 м/с80%1014 гПаоблачно
23 января
00:00-0З, 5 м/с79%1014 гПаоблачно
01:00-0З, 5 м/с79%1014 гПаоблачно
02:00-1З, 5 м/с79%1015 гПаоблачно
03:00-1З, 6 м/с78%1015 гПаоблачно
04:00-2З, 5 м/с78%1016 гПамалооблачно
05:00-2З, 5 м/с79%1016 гПамалооблачно
06:00-2З, 4 м/с79%1017 гПамалооблачно
07:00-3З, 4 м/с80%1017 гПаясно
08:00-3З, 4 м/с81%1018 гПаясно
09:00-3З, 3 м/с81%1019 гПамалооблачно